GW2967 Weather Reports


Display with metric or nautical units.
time (UTC)temp
F
wind
direction
speed
MPH
gust
MPH
rain 1hr
in
rain 24hr
in
rain mn
in
humidity
%
barometer
mb
20260902213036 68 0 0.0 2.0 0.02 0.80 0.08 65 1019.0
20260902190039 68 186 0.0 3.0 0.00 0.78 0.06 65 1019.1
20260902184555 68 0 0.0 3.0 0.00 0.78 0.06 65 1019.1
20260902174535 68 0 0.0 1.0 0.00 0.78 0.06 66 1020.3
20260902164538 67 75 0.0 3.0 0.01 0.78 0.06 65 1020.4
20260902151538 67 0 0.0 3.0 0.00 0.77 0.05 66 1020.3
20260902143043 66 0 0.0 3.0 0.00 0.77 0.05 66 1020.3
20260902141534 67 0 0.0 2.0 0.00 0.77 0.05 66 1020.4
20260902124536 66 13 0.0 2.0 0.01 0.77 0.05 66 1019.8
20260902120043 66 0 0.0 2.0 0.01 0.76 0.04 66 1019.5
20260902101536 67 247 0.0 2.0 0.02 0.74 0.02 66 1019.1
20260902091537 70 0 0.0 1.0 0.00 0.72 0.00 66 1018.4
20260902081537 70 0 0.0 0.0 0.00 0.72 0.00 66 1017.9
20260902073037 69 0 0.0 0.0 0.00 0.72 0.00 66 1017.9
20260902071538 69 0 0.0 0.0 0.00 0.72 0.00 66 1017.8
20260902070037 69 0 0.0 0.0 0.00 0.72 0.00 66 1017.9
20260902063036 69 0 0.0 0.0 0.00 0.73 0.00 66 1017.8
20260902054545 69 0 0.0 0.0 0.00 0.73 0.00 66 1018.5
20260902053036 69 0 0.0 0.0 0.00 0.73 0.00 66 1018.4
20260902050038 69 0 0.0 0.0 0.00 0.73 0.00 66 1018.2
20260902044535 69 0 0.0 0.0 0.00 0.73 0.00 66 1018.2
20260902034537 68 0 0.0 0.0 0.00 0.73 0.73 66 1017.5
20260902033042 68 0 0.0 0.0 0.00 0.73 0.73 66 1017.2
20260902024538 68 0 0.0 0.0 0.00 0.73 0.73 65 1016.6
20260902014538 69 0 0.0 1.0 0.01 0.73 0.73 65 1015.8
20260902003039 70 0 0.0 1.0 0.00 0.72 0.72 65 1015.8
20260901233036 70 0 0.0 0.0 0.30 0.72 0.72 63 1014.5
20260901224539 71 0 0.0 1.0 0.58 0.60 0.60 66 1014.6
20260901223039 75 238 0.0 9.0 0.39 0.40 0.40 59 1015.3
20260901221602 79 114 0.0 1.0 0.00 0.01 0.01 63 1014.3
20260901220038 81 0 0.0 0.0 0.00 0.01 0.01 62 1014.2
20260901214538 82 0 0.0 0.0 0.00 0.01 0.01 59 1014.1